EHI
0 0 0 0 0 0 0 0 0 0 0 0 0 0 0 0 0 0 0 0 0 0 0 0 0 0 0 0 0 0 0 0 0 0 0 0 0 0 0 0 0 0 0 0
0 0 0 0 0 0 0 0 0 0 0 0 0 0 0 0 0 0 0 0 0 0 0 0 0 0 0 0 0 0 0 0 0 0 0 0 0 0 0 0 0 0 0 0
0 0 0 0 0 0 0 0 0 0 0 0 0 0 0 0 0 0 0 0 0 0 0 0 0 0 0 0 0 0 0 0 0 0 0 0 0 0 0 0 0 0 0 0
0 0 0 0 0 0 0 0 0 0 0 0 0 0 0 0 0 0 0 0 0 0 0 0 0 0 0 0 0 0 0 0 0 0 0 0 0 0 0 0 0 0 0 0
0 0 0 0 0 0 0 0 0 0 0 0 0 0 0 0 0 0 0 0 0 0 0 0 0 0 0 0 0 0 0 0 0 0 0 0 0 0 0 0 0 0 0 0
0 0 0 0 0 0 0 0 0 0 0 0 0 0 0 0 0 0 0 0 0 0 0 0 0 0 0 0 0 0 0 0 0 0 0 0 0 0 0 0 0 0 0 0
0 0 0 0 0 0 0 0 0 0 0 0 0 0 0 0 0 0 0 0 0 0 0 0 0 0 0 0 0 0 0 0 0 0 0 0 0 0 0 0 0 0 0 0
0 0 0 0 0 0 0 0 0 0 0 0 0 0 0 0 0 0 0 0 0 0 0 0 0 0 0 0 0 0 0 0 0 0 0 0 0 0 0 0 0 0 0 0
0 0 0 0 0 0 0 0 0 0 0 0 0 0 0 0 0 0 0 0 0 0 0 0 0 0 0 0 0 0 0 0 0 0 0 0 0 0 0 0 0 0 0 0
0 0 0 0 0 0 0 0 0 0 0 0 0 0 0 0 0 0 0 0 0 0 0 0 0 0 0 0 0 0 0 0 0 0 0 0 0 0 0 0 0 0 0 0
0 0 0 0 0 0 0 0 0 0 0 0 0 0 0 0 0 0 0 0 0 0 0 0 0 0 0 0 0 0 0 0 0 0 0 0 0 0 0 0 0 0 0 0
0 0 0 0 0 0 0 0 0 0 0 0 0 0 0 0 0 0 0 0 0 0 0 0 0 0 0 0 0 0 0 0 0 0 0 0 0 0 0 0 0 0 0 0
0 0 0 0 0 0 0 0 0 0 0 0 0 0 0 0 0 0 0 0 0 0 0 0 0 0 0 0 0 0 0 0 0 0 0 0 0 0 0 0 0 0 0 0
0 0 0 0 0 0 0 0 0 0 0 0 0 0 0 0 0 0 0 0 0 0 0 0 0 0 0 0 0 0 0 0 0 0 0 0 0 0 0 0 0 0 0 0
0 0 0 0 0 0 0 0 0 0 0 0 0 0 0 0 0 0 0 0 0 0 0 0 0 0 0 0 0 0 0 0 0 0 0 0 0 0 0 0 0 0 0 0
0 0 0 0 0 0 0 0 0 0 0 0 0 0 0 0 0 0 0 0 0 0 0 0 0 0 0 0 0 0 0 0 0 0 0 0 0 0 0 0 0 0 0 0
0 0 0 0 0 0 0 0 0 0 0 0 0 0 0 0 0 0 0 0 0 0 0 0 0 0 0 0 0 0 0 0 0 0 0 0 0 0 0 0 0 0 0 0
0 0 0 0 0 0 0 0 0 0 0 0 0 0 0 0 0 0 0 0 0 0 0 0 0 0 0 0 0 0 0 0 0 0 0 0 0 0 0 0 0 0 0 0
0 0 0 0 0 0 0 0 0 0 0 0 0 0 0 0 0 0 0 0 0 0 0 0 0 0 0 0 0 0 0 0 0 0 0 0 0 0 0 0 0 0 0 0
0 0 0 0 0 0 0 0 0 0 0 0 0 0 0 0 0 0 0 0 0 0 0 0 0 0 0 0 0 0 0 0 0 0 0 0 0 0 0 0 0 0 0 0
0 0 0 0 0 0 0 0 0 0 0 0 0 0 0 0 0 0 0 0 0 0 0 0 0 0 0 0 0 0 0 0 0 0 0 0 0 0 0 0 0 0 0 0
0 0 0 0 0 0 0 0 0 0 0 0 0 0 0 0 0 0 0 0 0 0 0 0 0 0 0 0 0 0 0 0 0 0 0 0 0 0 0 0 0 0 0 0
0 0 0 0 0 0 0 0 0 0 0 0 0 0 0 0 0 0 0 0 0 0 0 0 0 0 0 0 0 0 0 0 0 0 0 0 0 0 0 0 0 0 0 0
0 0 0 0 0 0 0 0 0 0 0 0 0 0 0 0 0 0 0 0 0 0 0 0 0 0 0 0 0 0 0 0 0 0 0 0 0 0 0 0 0 0 0 0
0 0 0 0 0 0 0 0 0 0 0 0 0 0 0 0 0 0 0 0 0 0 0 0 0 0 0 0 0 0 0 0 0 0 0 0 0 0 0 0 0 0 0 0
0 0 0 0 0 0 0 0 0 0 0 0 0 0 0 0 0 0 0 0 0 0 0 0 0 0 0 0 0 0 0 0 0 0 0 0 0 0 0 0 0 0 0 0
Wind_Speed
2 4 1 4 4 3 3 3 3 4 2 2 6 9 10 6 6 8 8 8 9 10 7 5 6 6 5 5 5 6 6 5 5 4 3 3 2 2 1 1 2 2 2 2
3 1 4 2 2 2 2 2 2 2 1 2 4 9 8 7 9 9 10 10 10 7 5 5 5 5 6 7 6 6 6 6 6 4 3 3 3 2 2 1 1 2 2 2
4 3 2 1 1 2 2 3 3 2 3 1 3 7 5 6 6 6 7 8 8 9 9 7 7 7 6 6 7 6 7 6 6 5 3 2 2 1 1 2 2 2 2 2
1 2 1 1 1 3 3 2 2 1 1 3 0 5 7 5 5 7 9 8 8 8 8 8 8 7 8 7 6 6 6 6 6 5 5 5 4 4 4 3 2 2 2 2
2 0 1 2 2 2 3 0 1 1 1 2 1 3 10 3 6 9 9 9 9 8 9 9 10 9 8 6 6 6 6 6 6 7 7 6 4 3 2 2 2 2 1 2
1 0 1 2 1 1 1 3 4 4 3 3 4 4 9 5 8 7 7 8 9 8 8 8 7 6 6 5 5 5 6 6 6 7 8 8 7 5 5 4 3 3 2 2
2 2 1 1 2 2 2 4 4 5 3 6 2 4 12 8 7 7 7 8 8 8 8 7 7 7 7 7 7 6 7 7 7 7 8 8 8 7 7 6 5 4 3 2
2 4 2 1 2 3 2 4 6 4 5 5 2 7 10 6 5 5 5 5 5 6 7 8 8 8 8 8 8 8 8 7 7 7 7 7 7 5 5 6 5 5 4 4
5 4 1 1 0 3 3 2 3 4 0 3 6 8 11 4 4 4 4 3 5 5 6 7 7 7 8 8 9 9 9 8 7 7 6 6 6 6 6 5 4 4 3 3
4 2 2 1 1 1 1 4 4 4 3 4 7 6 6 6 6 5 4 5 5 4 5 5 6 7 7 7 7 7 8 8 7 7 6 5 6 6 5 5 5 5 4 4
2 3 2 0 4 5 3 2 3 3 3 4 4 9 8 7 5 5 6 6 5 5 5 5 5 5 5 5 6 7 7 7 6 7 6 6 6 5 5 5 6 5 5 5
2 3 2 5 2 1 3 5 6 5 4 4 4 11 5 4 4 4 6 5 4 5 4 4 4 4 4 6 6 7 7 7 7 7 6 6 6 6 6 6 6 5 5 5
4 4 1 4 2 1 3 4 4 3 3 4 5 11 4 2 4 4 5 5 4 3 3 3 3 4 5 6 7 7 8 8 7 6 6 6 6 6 7 6 6 5 5 5
4 4 6 8 5 4 5 5 6 6 5 6 11 12 10 8 7 6 5 5 4 4 4 4 4 5 5 6 6 7 7 7 7 7 7 7 7 7 6 5 5 5 5 5
4 4 4 6 4 3 6 8 10 12 11 10 10 10 15 11 8 7 6 5 4 4 5 6 6 6 5 5 5 6 6 6 7 7 7 7 6 5 5 5 5 4 4 5
3 3 1 4 3 4 7 11 12 13 11 12 11 16 14 9 6 6 6 5 6 6 7 6 6 5 5 6 6 5 6 6 6 7 7 6 5 5 5 5 5 4 4 4
4 5 3 4 3 3 11 13 15 10 11 11 15 16 7 6 7 8 7 7 8 8 7 7 6 6 6 6 5 6 5 4 6 6 6 6 6 6 6 5 5 5 5 4
6 5 3 1 1 8 10 3 10 11 11 13 11 10 8 8 6 6 6 7 8 7 6 6 5 5 4 3 3 3 3 4 5 5 4 5 5 6 5 5 5 5 4 4
5 6 4 3 4 11 10 4 6 8 9 10 14 14 9 4 4 6 5 5 7 6 6 5 5 4 3 3 4 4 3 4 4 4 4 4 5 5 5 6 5 5 4 4
3 3 4 4 4 9 7 2 3 3 7 5 9 11 6 1 3 6 3 3 4 3 3 2 2 1 2 3 4 5 4 4 5 5 4 4 5 5 6 6 5 4 4 4
5 4 6 6 7 12 8 2 5 4 7 1 5 7 5 7 7 3 2 2 2 2 1 1 1 2 3 3 4 5 4 5 4 3 3 3 4 4 5 4 4 4 4 3
11 9 9 7 7 13 4 7 8 7 2 1 2 3 5 6 4 3 3 3 2 1 1 0 1 1 1 2 4 4 4 3 2 3 3 3 3 3 3 4 3 3 4 3
10 11 9 12 12 4 5 6 4 1 2 2 2 3 3 4 4 4 3 3 2 2 1 0 1 1 0 1 3 4 2 1 3 4 3 3 3 3 3 4 4 3 3 3
6 3 5 6 9 6 4 4 4 2 3 3 3 3 2 3 4 4 3 3 2 2 1 0 1 1 0 0 0 1 0 2 3 4 3 3 3 3 2 2 3 3 4 4
6 5 5 7 7 5 4 4 6 5 4 4 4 2 2 3 4 3 3 3 3 2 1 0 1 2 1 0 0 1 1 2 2 3 2 2 2 2 2 2 3 3 4 4
4 7 7 8 5 4 4 3 3 3 4 5 4 4 3 2 4 3 3 2 2 1 1 0 1 1 0 0 0 1 0 1 2 2 2 2 2 2 2 2 1 3 4 5
Wind_Direction
42 75 152 216 203 193 174 180 228 253 234 218 239 258 263 243 231 233 230 226 224 228 220 198 192 187 178 179 182 183 181 178 168 164 168 173 179 173 173 173 161 150 144 140
64 248 238 233 202 182 181 184 241 276 276 243 273 274 265 240 228 225 224 223 223 223 211 199 192 188 187 188 189 192 188 183 179 179 177 179 170 173 176 170 166 167 156 154
166 228 236 180 165 183 232 200 216 245 325 329 322 300 268 256 235 237 231 222 216 211 208 204 199 198 195 196 193 197 193 185 183 176 157 141 123 114 142 178 192 193 170 167
208 281 179 160 202 172 239 222 192 195 15 290 168 291 279 251 257 242 238 229 221 212 207 204 201 200 200 205 199 199 193 184 182 175 172 173 178 183 195 188 188 188 181 175
233 238 131 191 232 179 207 232 157 183 168 307 265 246 280 271 257 250 239 230 223 214 207 207 205 204 203 198 196 198 192 194 186 182 180 181 190 190 171 159 170 181 190 180
209 307 188 207 294 171 144 58 54 49 66 285 229 202 273 237 228 245 239 229 221 216 213 212 208 201 202 195 194 191 194 201 196 190 187 187 190 182 173 177 184 191 194 192
333 312 327 58 71 31 81 91 35 358 351 255 225 217 252 243 231 230 239 234 224 213 208 208 203 201 201 199 199 196 196 204 201 195 195 193 192 186 187 189 192 193 191 201
175 274 242 220 161 176 187 145 157 198 236 278 272 239 254 255 261 258 247 238 229 216 209 210 207 202 201 202 200 196 197 204 200 199 200 197 192 191 196 195 190 197 200 203
181 241 325 261 254 148 153 186 164 138 51 288 270 278 296 272 275 265 258 250 241 228 217 215 212 207 203 202 201 198 197 201 200 201 197 198 195 196 198 193 187 194 193 185
160 211 281 301 56 314 177 149 116 135 164 269 287 269 256 266 259 267 267 257 254 245 234 224 217 213 209 204 200 195 197 201 201 197 197 200 198 200 196 184 187 187 184 176
128 148 290 312 201 195 165 169 157 150 171 179 268 269 230 232 244 249 253 251 247 242 236 228 222 214 207 201 195 195 197 198 200 200 198 196 198 198 191 186 189 185 181 178
140 126 238 246 229 232 207 197 166 172 221 204 231 268 263 237 260 255 261 263 257 245 239 229 218 209 205 205 201 200 200 201 204 199 195 198 197 189 187 190 189 181 182 183
145 132 62 336 308 247 240 222 190 151 139 184 211 263 294 305 291 276 270 269 264 253 242 232 221 217 216 213 208 204 203 204 201 192 191 194 194 191 192 191 186 181 182 182
127 167 190 209 224 187 216 216 187 163 191 217 228 255 284 283 280 281 277 266 259 251 237 229 230 231 226 220 214 207 205 200 193 190 191 196 197 194 191 187 181 181 182 183
141 200 228 257 263 219 226 221 199 205 211 214 237 241 259 264 261 262 262 260 257 256 248 235 231 234 231 225 222 211 205 197 190 189 193 200 192 183 178 179 178 175 179 186
153 184 198 277 259 246 257 239 218 222 226 238 259 266 256 261 265 263 256 246 247 251 246 241 236 233 229 222 218 210 204 197 186 192 198 192 177 176 179 181 176 173 180 181
168 155 164 261 310 323 267 227 201 209 212 201 227 244 261 263 253 246 244 240 241 245 244 238 231 228 227 222 210 207 202 185 182 193 191 183 176 179 183 179 174 181 185 178
163 155 160 226 48 242 246 190 187 209 230 215 235 254 251 248 261 256 236 231 245 245 242 239 233 230 227 215 201 188 169 168 175 182 181 178 176 181 178 173 180 184 177 179
177 163 157 164 236 273 286 231 177 196 255 219 229 251 262 278 306 279 243 227 234 236 236 232 225 220 211 200 184 161 162 165 168 181 185 182 178 178 176 180 184 181 173 178
149 154 158 169 206 242 252 182 158 136 274 236 214 240 246 168 266 269 267 245 254 257 243 231 213 197 196 199 166 160 172 173 191 197 192 181 178 179 183 185 180 173 174 184
171 178 192 198 228 259 258 180 133 178 250 275 207 227 207 207 228 274 326 301 273 272 270 219 171 192 210 184 160 169 177 199 205 179 163 167 176 182 181 174 165 166 171 171
177 177 192 176 210 250 203 146 185 225 286 294 254 244 230 239 261 295 313 308 302 311 320 186 178 230 223 160 164 180 202 209 164 148 154 167 172 174 168 164 164 165 168 174
200 193 185 194 215 245 172 200 228 300 276 285 288 287 264 264 274 285 295 293 299 300 308 320 189 207 54 149 168 189 218 155 146 147 159 164 161 165 165 168 172 171 176 187
234 207 193 240 259 258 245 265 291 281 269 283 284 291 275 264 276 282 287 291 296 303 302 343 127 150 233 180 165 224 157 135 152 163 166 163 164 164 166 178 182 185 190 196
215 180 205 245 271 298 278 261 268 277 288 295 293 288 273 266 275 273 279 280 280 292 320 103 171 197 224 177 18 7 52 130 161 168 163 165 170 172 178 194 205 206 210 204
189 184 194 231 233 231 258 294 297 281 284 284 291 304 304 271 274 280 276 279 284 288 308 255 226 225 259 104 24 28 98 159 165 172 180 184 181 182 187 199 246 249 237 236